User: anonymous   Login
Location: Unspecified
(0.0000°N, 0.0000°E)
Time: 02:54:15
(UTC+00:00)
Language:

STARLINK-34217 - Orbit

View from above orbital plane
View from above orbital plane
View from above satellite
View from above satellite

Ground track
Ground track

The orbit is defined by the following mean orbital elements,

1 64488U          26145.35150734 +.00000000 +00000-0 +59655-3 0 00002
2 64488  53.1576 120.8538 0001242  92.8245 267.2898 15.30211723    02
Epoch (UTC): 25 May 2026 08:26:10
Eccentricity: 0.0001242
inclination: 53.1576°
perigee height: 474 km
apogee height: 476 km
right ascension of ascending node: 120.8538°
argument of perigee: 92.8245°
revolutions per day: 15.30211723
mean anomaly at epoch: 267.2898°

The dashed part of the orbit path shows where the satellite is in the earth's shadow,  

DLR